N858TH KASE-KSLC

Flight info

Callsign N858TH
Flight time 0h 46m
Altitude 40000
Route LINDZ1 LINDZ RIL HELPR JAZZZ1
Aircraft C750/M-SBDE3FGHRWXY/S

Departure

Time 2026-04-25 05:12
Airport Aspen-Pitkin County Airport (Sardy Field) (KASE)

Arrival

Time 2026-04-25 05:58
Airport Salt Lake City International Airport (KSLC)
Time Latitude Longitude Altitude Speed Heading
2026-04-25 04:32 39.22303 -106.86724 7817 ft 0 kts 72°
2026-04-25 05:06 39.22302 -106.86722 7817 ft 1 kts 95°
2026-04-25 05:07 39.22279 -106.86712 7815 ft 6 kts 167°
2026-04-25 05:07 39.22219 -106.86714 7817 ft 10 kts 180°
2026-04-25 05:07 39.22169 -106.86694 7817 ft 5 kts 157°
2026-04-25 05:07 39.22167 -106.86693 7812 ft 2 kts 155°
2026-04-25 05:08 39.22136 -106.86677 7817 ft 9 kts 160°
2026-04-25 05:08 39.22052 -106.86642 7817 ft 16 kts 160°
2026-04-25 05:08 39.21930 -106.86572 7818 ft 22 kts 159°
2026-04-25 05:08 39.21764 -106.86496 7818 ft 26 kts 163°
2026-04-25 05:09 39.21607 -106.86427 7816 ft 21 kts 161°
2026-04-25 05:09 39.21477 -106.86371 7818 ft 18 kts 157°
2026-04-25 05:09 39.21372 -106.86315 7818 ft 15 kts 159°
2026-04-25 05:09 39.21284 -106.86272 7818 ft 12 kts 162°
2026-04-25 05:10 39.21221 -106.86253 7817 ft 0 kts 186°
2026-04-25 05:10 39.21215 -106.86254 7817 ft 3 kts 185°
2026-04-25 05:10 39.21188 -106.86281 7817 ft 7 kts 238°
2026-04-25 05:11 39.21188 -106.86349 7817 ft 6 kts 331°
2026-04-25 05:11 39.21206 -106.86357 7817 ft 0 kts 338°
2026-04-25 05:12 39.21232 -106.86371 7818 ft 23 kts 340°
2026-04-25 05:12 39.21715 -106.86602 7819 ft 125 kts 340°
2026-04-25 05:12 39.22724 -106.87087 7953 ft 168 kts 339°
2026-04-25 05:12 39.23833 -106.87512 8954 ft 165 kts 346°
2026-04-25 05:13 39.25004 -106.87894 9112 ft 189 kts 330°
2026-04-25 05:13 39.26003 -106.89177 9315 ft 219 kts 297°
2026-04-25 05:13 39.26467 -106.91158 9636 ft 244 kts 279°
2026-04-25 05:13 39.26801 -106.93412 10060 ft 267 kts 279°
2026-04-25 05:14 39.27175 -106.95863 10419 ft 290 kts 279°
2026-04-25 05:14 39.27610 -106.98518 10686 ft 315 kts 282°
2026-04-25 05:14 39.28643 -107.01159 10713 ft 349 kts 306°
2026-04-25 05:15 39.31949 -107.05814 12280 ft 355 kts 308°
2026-04-25 05:15 39.33590 -107.08211 13072 ft 356 kts 307°
2026-04-25 05:15 39.35255 -107.10602 13807 ft 360 kts 308°
2026-04-25 05:15 39.36951 -107.13004 14428 ft 363 kts 309°
2026-04-25 05:16 39.38548 -107.15530 15054 ft 363 kts 299°
2026-04-25 05:16 39.39574 -107.18488 15730 ft 359 kts 286°
2026-04-25 05:16 39.40321 -107.21541 16365 ft 362 kts 284°
2026-04-25 05:16 39.41095 -107.24700 17079 ft 365 kts 285°
2026-04-25 05:17 39.41880 -107.27785 17772 ft 368 kts 286°
2026-04-25 05:17 39.42683 -107.30947 18427 ft 372 kts 285°
2026-04-25 05:17 39.43477 -107.34141 19074 ft 374 kts 285°
2026-04-25 05:17 39.44275 -107.37361 19698 ft 378 kts 285°
2026-04-25 05:18 39.45088 -107.40605 20401 ft 381 kts 286°
2026-04-25 05:18 39.45923 -107.43877 21033 ft 385 kts 285°
2026-04-25 05:18 39.46742 -107.47187 21604 ft 388 kts 285°
2026-04-25 05:18 39.47552 -107.50537 22069 ft 391 kts 285°
2026-04-25 05:19 39.48099 -107.52769 22412 ft 393 kts 285°
2026-04-25 05:19 39.48940 -107.56147 22922 ft 395 kts 285°
2026-04-25 05:19 39.49788 -107.59558 23460 ft 399 kts 285°
2026-04-25 05:19 39.50629 -107.62983 24073 ft 399 kts 285°
2026-04-25 05:20 39.51473 -107.66421 24670 ft 401 kts 285°
2026-04-25 05:20 39.52318 -107.69868 25246 ft 402 kts 285°
2026-04-25 05:20 39.52958 -107.73393 25780 ft 403 kts 277°
2026-04-25 05:20 39.53288 -107.76998 26332 ft 404 kts 275°
2026-04-25 05:21 39.53616 -107.80620 26988 ft 404 kts 275°
2026-04-25 05:21 39.53959 -107.84243 27431 ft 407 kts 275°
2026-04-25 05:21 39.54290 -107.87847 27996 ft 409 kts 275°
2026-04-25 05:21 39.54620 -107.91569 28498 ft 412 kts 275°
2026-04-25 05:22 39.54945 -107.95213 29087 ft 413 kts 275°
2026-04-25 05:22 39.55283 -107.98922 29645 ft 416 kts 275°
2026-04-25 05:22 39.55620 -108.02654 30119 ft 418 kts 275°
2026-04-25 05:22 39.55952 -108.06409 30545 ft 421 kts 275°
2026-04-25 05:23 39.56284 -108.10181 31121 ft 420 kts 275°
2026-04-25 05:23 39.56615 -108.13934 31776 ft 418 kts 275°
2026-04-25 05:23 39.56947 -108.17657 32421 ft 416 kts 275°
2026-04-25 05:23 39.57274 -108.21373 33102 ft 413 kts 275°
2026-04-25 05:24 39.57595 -108.25066 33775 ft 411 kts 275°
2026-04-25 05:24 39.57915 -108.28743 34343 ft 410 kts 275°
2026-04-25 05:24 39.58234 -108.32409 34906 ft 408 kts 275°
2026-04-25 05:24 39.58551 -108.36062 35472 ft 407 kts 275°
2026-04-25 05:25 39.58864 -108.39708 36020 ft 406 kts 275°
2026-04-25 05:25 39.59170 -108.43295 36580 ft 405 kts 275°
2026-04-25 05:25 39.59480 -108.46922 37107 ft 405 kts 275°
2026-04-25 05:25 39.59791 -108.50546 37729 ft 403 kts 275°
2026-04-25 05:26 39.60097 -108.54161 38333 ft 401 kts 275°
2026-04-25 05:26 39.60400 -108.57762 38691 ft 404 kts 275°
2026-04-25 05:26 39.60708 -108.61450 38688 ft 416 kts 275°
2026-04-25 05:26 39.61028 -108.65233 38709 ft 428 kts 275°
2026-04-25 05:27 39.61355 -108.69116 38704 ft 439 kts 275°
2026-04-25 05:27 39.61686 -108.73100 38692 ft 450 kts 275°
2026-04-25 05:27 39.62021 -108.77169 38697 ft 457 kts 275°
2026-04-25 05:28 39.62698 -108.85423 38696 ft 461 kts 275°
2026-04-25 05:28 39.63376 -108.93712 38695 ft 462 kts 275°
2026-04-25 05:29 39.64041 -109.01949 38690 ft 461 kts 275°
2026-04-25 05:29 39.64710 -109.10296 38687 ft 463 kts 275°
2026-04-25 05:30 39.65366 -109.18564 38678 ft 464 kts 275°
2026-04-25 05:30 39.66023 -109.26891 38684 ft 464 kts 275°
2026-04-25 05:31 39.66668 -109.35233 38684 ft 464 kts 275°
2026-04-25 05:31 39.67314 -109.43572 38684 ft 464 kts 275°
2026-04-25 05:32 39.67952 -109.51924 38681 ft 466 kts 275°
2026-04-25 05:32 39.68586 -109.60294 38683 ft 466 kts 275°
2026-04-25 05:33 39.69215 -109.68667 38691 ft 466 kts 274°
2026-04-25 05:33 39.69836 -109.77037 38689 ft 466 kts 274°
2026-04-25 05:34 39.70451 -109.85405 38692 ft 465 kts 274°
2026-04-25 05:34 39.71056 -109.93708 38700 ft 465 kts 274°
2026-04-25 05:35 39.71658 -110.02061 38699 ft 463 kts 274°
2026-04-25 05:35 39.71951 -110.06132 38149 ft 445 kts 274°
2026-04-25 05:35 39.72231 -110.10056 37576 ft 426 kts 274°
2026-04-25 05:35 39.72496 -110.13813 37015 ft 411 kts 274°
2026-04-25 05:36 39.72753 -110.17475 36490 ft 406 kts 274°
2026-04-25 05:36 39.73010 -110.21146 35979 ft 410 kts 274°
2026-04-25 05:36 39.73269 -110.24844 35441 ft 413 kts 274°
2026-04-25 05:36 39.73528 -110.28559 34897 ft 414 kts 274°
2026-04-25 05:37 39.73786 -110.32291 34345 ft 415 kts 274°
2026-04-25 05:37 39.74044 -110.36038 33819 ft 416 kts 274°
2026-04-25 05:37 39.74300 -110.39769 33232 ft 416 kts 274°
2026-04-25 05:37 39.74556 -110.43519 32685 ft 418 kts 274°
2026-04-25 05:38 39.74812 -110.47288 32135 ft 419 kts 274°
2026-04-25 05:38 39.75068 -110.51073 31591 ft 421 kts 274°
2026-04-25 05:38 39.75562 -110.54832 31016 ft 425 kts 284°
2026-04-25 05:38 39.76684 -110.58410 30473 ft 431 kts 294°
2026-04-25 05:39 39.78034 -110.61903 29912 ft 430 kts 294°
2026-04-25 05:39 39.79369 -110.65356 29354 ft 426 kts 294°
2026-04-25 05:39 39.80678 -110.68800 28790 ft 423 kts 294°
2026-04-25 05:39 39.81976 -110.72229 28232 ft 421 kts 294°
2026-04-25 05:40 39.83273 -110.75623 27684 ft 418 kts 294°
2026-04-25 05:40 39.84567 -110.79003 27124 ft 416 kts 294°
2026-04-25 05:40 39.85849 -110.82375 26574 ft 419 kts 294°
2026-04-25 05:40 39.87124 -110.85742 26022 ft 409 kts 294°
2026-04-25 05:41 39.88381 -110.89052 25490 ft 407 kts 294°
2026-04-25 05:41 39.89629 -110.92342 24950 ft 404 kts 294°
2026-04-25 05:41 39.90870 -110.95624 24415 ft 402 kts 294°
2026-04-25 05:41 39.92102 -110.98883 23884 ft 400 kts 295°
2026-04-25 05:42 39.93327 -111.02124 23364 ft 397 kts 295°
2026-04-25 05:42 39.94527 -111.05301 22812 ft 393 kts 295°
2026-04-25 05:42 39.95728 -111.08487 22281 ft 390 kts 295°
2026-04-25 05:42 39.96916 -111.11644 21777 ft 386 kts 295°
2026-04-25 05:43 39.98092 -111.14779 21267 ft 383 kts 295°
2026-04-25 05:43 39.99266 -111.17895 20782 ft 381 kts 295°
2026-04-25 05:43 40.00428 -111.20981 20275 ft 375 kts 294°
2026-04-25 05:43 40.01560 -111.24010 19774 ft 370 kts 294°
2026-04-25 05:44 40.02684 -111.27013 19304 ft 367 kts 294°
2026-04-25 05:44 40.03800 -111.29993 18828 ft 365 kts 294°
2026-04-25 05:44 40.04910 -111.32958 18342 ft 362 kts 294°
2026-04-25 05:44 40.06011 -111.35897 17845 ft 359 kts 294°
2026-04-25 05:45 40.07083 -111.38770 17361 ft 340 kts 294°
2026-04-25 05:45 40.08084 -111.41456 16930 ft 318 kts 294°
2026-04-25 05:45 40.09025 -111.43987 16516 ft 301 kts 294°
2026-04-25 05:45 40.09924 -111.46408 16127 ft 294 kts 294°
2026-04-25 05:46 40.10816 -111.48809 15738 ft 293 kts 293°
2026-04-25 05:46 40.11702 -111.51193 15395 ft 290 kts 293°
2026-04-25 05:46 40.12583 -111.53568 14971 ft 291 kts 293°
2026-04-25 05:46 40.13409 -111.55946 14825 ft 284 kts 290°
2026-04-25 05:47 40.14201 -111.58325 14923 ft 282 kts 291°
2026-04-25 05:47 40.15014 -111.60652 14922 ft 285 kts 291°
2026-04-25 05:47 40.15816 -111.63018 14924 ft 285 kts 291°
2026-04-25 05:47 40.16607 -111.65402 14920 ft 286 kts 291°
2026-04-25 05:48 40.17596 -111.67667 14741 ft 292 kts 305°
2026-04-25 05:48 40.19065 -111.69524 14527 ft 295 kts 314°
2026-04-25 05:48 40.20589 -111.71312 14337 ft 293 kts 313°
2026-04-25 05:48 40.22097 -111.73116 14089 ft 294 kts 313°
2026-04-25 05:49 40.23601 -111.74921 13832 ft 292 kts 313°
2026-04-25 05:49 40.25101 -111.76713 13557 ft 292 kts 313°
2026-04-25 05:49 40.26599 -111.78501 13288 ft 291 kts 313°
2026-04-25 05:49 40.28096 -111.80293 13019 ft 295 kts 314°
2026-04-25 05:50 40.29607 -111.82104 12773 ft 293 kts 313°
2026-04-25 05:50 40.31102 -111.83891 12496 ft 288 kts 313°
2026-04-25 05:50 40.32569 -111.85650 12248 ft 281 kts 313°
2026-04-25 05:50 40.33978 -111.87327 11997 ft 268 kts 314°
2026-04-25 05:51 40.35568 -111.88551 11937 ft 267 kts 333°
2026-04-25 05:51 40.37302 -111.89486 11876 ft 270 kts 332°
2026-04-25 05:51 40.39039 -111.90450 11568 ft 270 kts 333°
2026-04-25 05:51 40.40761 -111.91406 11252 ft 266 kts 333°
2026-04-25 05:52 40.42489 -111.92235 10879 ft 266 kts 343°
2026-04-25 05:52 40.44326 -111.92468 10564 ft 265 kts 352°
2026-04-25 05:52 40.46152 -111.92655 10229 ft 260 kts 351°
2026-04-25 05:52 40.47925 -111.92869 9899 ft 258 kts 352°
2026-04-25 05:53 40.49713 -111.93087 9551 ft 257 kts 353°
2026-04-25 05:53 40.51494 -111.93291 9208 ft 257 kts 353°
2026-04-25 05:53 40.53266 -111.93491 8874 ft 255 kts 353°
2026-04-25 05:53 40.55040 -111.93695 8538 ft 255 kts 354°
2026-04-25 05:54 40.56798 -111.93900 8205 ft 251 kts 354°
2026-04-25 05:54 40.58485 -111.94095 7868 ft 236 kts 353°
2026-04-25 05:54 40.61681 -111.94466 7258 ft 227 kts 355°
2026-04-25 05:55 40.63252 -111.94646 6951 ft 224 kts 354°
2026-04-25 05:55 40.64782 -111.94825 6660 ft 220 kts 355°
2026-04-25 05:55 40.66297 -111.95001 6385 ft 212 kts 355°
2026-04-25 05:55 40.67703 -111.95165 6119 ft 195 kts 355°
2026-04-25 05:56 40.69014 -111.95318 5870 ft 186 kts 355°
2026-04-25 05:56 40.70283 -111.95466 5628 ft 177 kts 355°
2026-04-25 05:56 40.71446 -111.95601 5390 ft 162 kts 353°
2026-04-25 05:56 40.72482 -111.95624 5185 ft 140 kts
2026-04-25 05:57 40.73427 -111.95648 4982 ft 132 kts 345°
2026-04-25 05:57 40.74328 -111.95932 4826 ft 135 kts 346°
2026-04-25 05:57 40.75248 -111.96103 4650 ft 133 kts 349°
2026-04-25 05:57 40.76202 -111.96207 4528 ft 138 kts 355°
2026-04-25 05:58 40.77135 -111.96220 4366 ft 131 kts 356°
2026-04-25 05:58 40.78022 -111.96215 4287 ft 123 kts 357°
2026-04-25 05:58 40.78773 -111.96208 4230 ft 96 kts 360°
2026-04-25 05:58 40.79256 -111.96197 4226 ft 42 kts 345°
2026-04-25 05:59 40.79541 -111.96208 4225 ft 39 kts
2026-04-25 05:59 40.79801 -111.96194 4227 ft 33 kts 24°
2026-04-25 05:59 40.79866 -111.96011 4227 ft 24 kts 149°
2026-04-25 05:59 40.79709 -111.96004 4227 ft 22 kts 182°
2026-04-25 06:00 40.79564 -111.96005 4227 ft 19 kts 178°
2026-04-25 06:00 40.79433 -111.96001 4227 ft 18 kts 179°
2026-04-25 06:00 40.79312 -111.95999 4227 ft 17 kts 179°
2026-04-25 06:00 40.79200 -111.95997 4227 ft 15 kts 179°
2026-04-25 06:01 40.79098 -111.95996 4227 ft 14 kts 179°
2026-04-25 06:01 40.78998 -111.95996 4227 ft 18 kts 179°
2026-04-25 06:01 40.78833 -111.95994 4228 ft 30 kts 179°
2026-04-25 06:01 40.78593 -111.96003 4227 ft 36 kts 180°
2026-04-25 06:02 40.78342 -111.96002 4227 ft 39 kts 178°
2026-04-25 06:02 40.78030 -111.96003 4274 ft 46 kts 185°
2026-04-25 06:02 40.77766 -111.95928 4274 ft 24 kts 141°
2026-04-25 06:02 40.77743 -111.95907 4274 ft 3 kts 105°
2026-04-25 06:03 40.77754 -111.95894 4274 ft 4 kts
2026-04-25 06:03 40.77811 -111.95891 4275 ft 12 kts
2026-04-25 06:03 40.77888 -111.95899 4275 ft 5 kts 263°
2026-04-25 06:03 40.77871 -111.95903 4275 ft 2 kts 176°
2026-04-25 06:04 40.77859 -111.95902 4275 ft 1 kts 176°
2026-04-25 06:04 40.77815 -111.95911 4275 ft 14 kts 193°
2026-04-25 06:04 40.77711 -111.95939 4274 ft 14 kts 181°
2026-04-25 06:04 40.77651 -111.95937 4274 ft 7 kts 176°
2026-04-25 06:05 40.77609 -111.95934 4274 ft 3 kts 176°
2026-04-25 06:05 40.77585 -111.95923 4274 ft 4 kts 127°
2026-04-25 06:05 40.77579 -111.95889 4274 ft 3 kts 92°
2026-04-25 06:05 40.77578 -111.95869 4274 ft 3 kts 91°
2026-04-25 06:06 40.77581 -111.95847 4274 ft 2 kts 67°
2026-04-25 06:06 40.77585 -111.95845 4274 ft 0 kts 18°
2026-04-25 06:06 40.77591 -111.95845 4274 ft 0 kts 358°
2026-04-25 06:06 40.77600 -111.95844 4274 ft 1 kts
2026-04-25 06:07 40.77603 -111.95844 4274 ft 0 kts
2026-04-25 06:07 40.77607 -111.95844 4274 ft 0 kts